Data No.,UTC Date,UTC Time,Latitude,Longitude,Course(deg),Temp(degC),Sal(psu)
190,2012/10/7,19:20:00,03-29.6600S,117-00.1200E,85,29.242,34.1902
191,2012/10/7,19:21:00,03-29.6400S,117-00.3200E,85,29.24,34.1881
192,2012/10/7,19:22:00,03-29.6200S,117-00.5200E,85,29.25,34.1883
193,2012/10/7,19:23:00,03-29.6100S,117-00.7200E,85,29.242,34.1888
194,2012/10/7,19:24:00,03-29.5900S,117-00.9200E,85,29.229,34.189
195,2012/10/7,19:25:00,03-29.5700S,117-01.1200E,85,29.224,34.1889
196,2012/10/7,19:26:00,03-29.5600S,117-01.3200E,85,29.227,34.1877
197,2012/10/7,19:27:00,03-29.5400S,117-01.5100E,84,29.237,34.1878
198,2012/10/7,19:28:00,03-29.5200S,117-01.7200E,84,29.241,34.1883
199,2012/10/7,19:29:00,03-29.5000S,117-01.9200E,85,29.237,34.1897
200,2012/10/7,19:30:00,03-29.4900S,117-02.1200E,85,29.225,34.1915
201,2012/10/7,19:31:00,03-29.4700S,117-02.3200E,85,29.218,34.1928
202,2012/10/7,19:32:00,03-29.4600S,117-02.5200E,85,29.215,34.1925
203,2012/10/7,19:33:00,03-29.4400S,117-02.7200E,85,29.204,34.1937
204,2012/10/7,19:34:00,03-29.4200S,117-02.9100E,85,29.202,34.1926
205,2012/10/7,19:35:00,03-29.4000S,117-03.1100E,85,29.203,34.194
206,2012/10/7,19:36:00,03-29.3900S,117-03.3100E,84,29.207,34.1946
207,2012/10/7,19:37:00,03-29.3700S,117-03.5300E,84,29.214,34.1955
208,2012/10/7,19:38:00,03-29.3500S,117-03.7300E,85,29.216,34.1957
209,2012/10/7,19:39:00,03-29.3300S,117-03.9200E,84,29.218,34.1947
210,2012/10/7,19:40:00,03-29.3100S,117-04.1300E,84,29.212,34.1957
211,2012/10/7,19:41:00,03-29.3000S,117-04.3200E,84,29.208,34.1968
212,2012/10/7,19:42:00,03-29.2800S,117-04.5200E,84,29.198,34.1975
213,2012/10/7,19:43:00,03-29.2600S,117-04.7300E,85,29.19,34.1974
214,2012/10/7,19:44:00,03-29.2400S,117-04.9200E,85,29.192,34.1972
215,2012/10/7,19:45:00,03-29.2300S,117-05.1200E,85,29.185,34.1974
216,2012/10/7,19:46:00,03-29.2100S,117-05.3200E,85,29.18,34.1982
217,2012/10/7,19:47:00,03-29.1900S,117-05.5200E,85,29.166,34.198
218,2012/10/7,19:48:00,03-29.1700S,117-05.7200E,84,29.169,34.1996
219,2012/10/7,19:49:00,03-29.1600S,117-05.9200E,84,29.167,34.1987
220,2012/10/7,19:50:00,03-29.1400S,117-06.1200E,84,29.168,34.1995
221,2012/10/7,19:51:00,03-29.1200S,117-06.3100E,84,29.175,34.2007
222,2012/10/7,19:52:00,03-29.1000S,117-06.5200E,84,29.179,34.2033
223,2012/10/7,19:53:00,03-29.0900S,117-06.7100E,84,29.189,34.2042
224,2012/10/7,19:54:00,03-29.0700S,117-06.9200E,85,29.185,34.2057
225,2012/10/7,19:55:00,03-29.0500S,117-07.1200E,84,29.179,34.2066
226,2012/10/7,19:56:00,03-29.0300S,117-07.3200E,84,29.171,34.2075
227,2012/10/7,19:57:00,03-29.0100S,117-07.5300E,84,29.167,34.2082
228,2012/10/7,19:58:00,03-28.9900S,117-07.7300E,84,29.165,34.2087
229,2012/10/7,19:59:00,03-28.9800S,117-07.9300E,84,29.149,34.2088
230,2012/10/7,20:00:00,03-28.9600S,117-08.1300E,85,29.133,34.2091
231,2012/10/7,20:01:00,03-28.9400S,117-08.3300E,84,29.136,34.2093
232,2012/10/7,20:02:00,03-28.9200S,117-08.5300E,84,29.14,34.2103
233,2012/10/7,20:03:00,03-28.9000S,117-08.7300E,84,29.143,34.2103
234,2012/10/7,20:04:00,03-28.8800S,117-08.9300E,84,29.156,34.2111
235,2012/10/7,20:05:00,03-28.8700S,117-09.1300E,84,29.17,34.2108
236,2012/10/7,20:06:00,03-28.8500S,117-09.3200E,84,29.177,34.2119
237,2012/10/7,20:07:00,03-28.8300S,117-09.5200E,84,29.176,34.213
238,2012/10/7,20:08:00,03-28.8100S,117-09.7200E,84,29.16,34.2147
239,2012/10/7,20:09:00,03-28.7900S,117-09.9200E,84,29.145,34.2139
240,2012/10/7,20:10:00,03-28.7700S,117-10.1200E,84,29.139,34.2144
241,2012/10/7,20:11:00,03-28.7500S,117-10.3200E,84,29.13,34.2164
242,2012/10/7,20:12:00,03-28.7300S,117-10.5200E,84,29.13,34.2169
243,2012/10/7,20:13:00,03-28.7200S,117-10.7200E,84,29.135,34.2179
244,2012/10/7,20:14:00,03-28.7000S,117-10.9200E,84,29.139,34.2192
245,2012/10/7,20:15:00,03-28.6800S,117-11.1200E,84,29.134,34.2214
246,2012/10/7,20:16:00,03-28.6600S,117-11.3200E,84,29.129,34.2232
247,2012/10/7,20:17:00,03-28.6400S,117-11.5400E,84,29.12,34.2246
248,2012/10/7,20:18:00,03-28.6200S,117-11.7400E,84,29.109,34.2251
249,2012/10/7,20:19:00,03-28.6000S,117-11.9300E,84,29.101,34.2262
250,2012/10/7,20:20:00,03-28.5800S,117-12.1300E,84,29.095,34.2262
251,2012/10/7,20:21:00,03-28.5600S,117-12.3300E,84,29.094,34.2274
252,2012/10/7,20:22:00,03-28.5400S,117-12.5400E,84,29.089,34.2271
253,2012/10/7,20:23:00,03-28.5300S,117-12.7400E,84,29.085,34.2295
254,2012/10/7,20:24:00,03-28.5100S,117-12.9300E,84,29.086,34.2304
255,2012/10/7,20:25:00,03-28.4800S,117-13.1400E,84,29.091,34.2312
256,2012/10/7,20:26:00,03-28.4700S,117-13.3300E,84,29.09,34.2306
257,2012/10/7,20:27:00,03-28.4500S,117-13.5300E,84,29.09,34.2322
258,2012/10/7,20:28:00,03-28.4300S,117-13.7400E,84,29.091,34.2327
259,2012/10/7,20:29:00,03-28.4100S,117-13.9400E,84,29.094,34.2324
260,2012/10/7,20:30:00,03-28.3900S,117-14.1300E,84,29.088,34.2323
261,2012/10/7,20:31:00,03-28.3700S,117-14.3400E,84,29.078,34.2333
262,2012/10/7,20:32:00,03-28.3500S,117-14.5300E,84,29.073,34.2326
263,2012/10/7,20:33:00,03-28.3400S,117-14.7300E,84,29.063,34.2326
264,2012/10/7,20:34:00,03-28.3200S,117-14.9300E,84,29.051,34.2325
265,2012/10/7,20:35:00,03-28.3000S,117-15.1400E,84,29.049,34.2326
266,2012/10/7,20:36:00,03-28.2800S,117-15.3400E,85,29.043,34.2314
267,2012/10/7,20:37:00,03-28.2600S,117-15.5400E,85,29.038,34.232
268,2012/10/7,20:38:00,03-28.2400S,117-15.7500E,84,29.03,34.2311
269,2012/10/7,20:39:00,03-28.2200S,117-15.9500E,84,29.021,34.2289
270,2012/10/7,20:40:00,03-28.2100S,117-16.1500E,84,29.013,34.2283
271,2012/10/7,20:41:00,03-28.1900S,117-16.3500E,84,28.999,34.2271
272,2012/10/7,20:42:00,03-28.1700S,117-16.5500E,85,28.977,34.2252
273,2012/10/7,20:43:00,03-28.1500S,117-16.7500E,84,28.978,34.2243
274,2012/10/7,20:44:00,03-28.1300S,117-16.9500E,84,28.996,34.2235
275,2012/10/7,20:45:00,03-28.1100S,117-17.1600E,84,29.005,34.2236
276,2012/10/7,20:46:00,03-28.0900S,117-17.3600E,84,29.001,34.2254
277,2012/10/7,20:47:00,03-28.0800S,117-17.5500E,84,28.997,34.223
278,2012/10/7,20:48:00,03-28.0600S,117-17.7500E,84,28.994,34.2243
279,2012/10/7,20:49:00,03-28.0400S,117-17.9500E,85,28.987,34.2249
280,2012/10/7,20:50:00,03-28.0200S,117-18.1500E,85,28.977,34.225
281,2012/10/7,20:51:00,03-28.0000S,117-18.3500E,85,28.973,34.2256
282,2012/10/7,20:52:00,03-27.9900S,117-18.5500E,84,28.966,34.225
283,2012/10/7,20:53:00,03-27.9700S,117-18.7500E,84,28.964,34.2252
284,2012/10/7,20:54:00,03-27.9500S,117-18.9500E,84,28.957,34.2245
285,2012/10/7,20:55:00,03-27.9300S,117-19.1500E,84,28.947,34.2242
286,2012/10/7,20:56:00,03-27.9100S,117-19.3600E,84,28.948,34.2238
287,2012/10/7,20:57:00,03-27.8900S,117-19.5500E,84,28.957,34.2233
288,2012/10/7,20:58:00,03-27.8700S,117-19.7700E,84,28.961,34.2238
289,2012/10/7,20:59:00,03-27.8500S,117-19.9700E,84,28.958,34.2243
290,2012/10/7,21:00:00,03-27.8300S,117-20.1700E,84,28.951,34.224
291,2012/10/7,21:01:00,03-27.8200S,117-20.3800E,84,28.951,34.2247
292,2012/10/7,21:02:00,03-27.8000S,117-20.5800E,84,28.943,34.2274
293,2012/10/7,21:03:00,03-27.7800S,117-20.7800E,84,28.954,34.2282
294,2012/10/7,21:04:00,03-27.7600S,117-20.9800E,84,28.962,34.23
295,2012/10/7,21:05:00,03-27.7400S,117-21.1700E,84,28.964,34.2321
296,2012/10/7,21:06:00,03-27.7200S,117-21.3800E,84,28.961,34.2334
297,2012/10/7,21:07:00,03-27.7000S,117-21.5800E,84,28.967,34.2338
298,2012/10/7,21:08:00,03-27.6800S,117-21.7800E,84,28.971,34.2341
299,2012/10/7,21:09:00,03-27.6700S,117-21.9800E,84,28.971,34.2354
300,2012/10/7,21:10:00,03-27.6500S,117-22.1800E,84,28.97,34.2378
301,2012/10/7,21:11:00,03-27.6300S,117-22.3700E,84,28.97,34.2377
302,2012/10/7,21:12:00,03-27.6100S,117-22.5800E,84,28.967,34.2392
303,2012/10/7,21:13:00,03-27.5900S,117-22.7800E,84,28.956,34.2395
304,2012/10/7,21:14:00,03-27.5700S,117-22.9800E,84,28.951,34.239
305,2012/10/7,21:15:00,03-27.5500S,117-23.1800E,84,28.953,34.2379
306,2012/10/7,21:16:00,03-27.5300S,117-23.3800E,84,28.961,34.2366
307,2012/10/7,21:17:00,03-27.5100S,117-23.5800E,84,28.961,34.2379
308,2012/10/7,21:18:00,03-27.4900S,117-23.7800E,84,28.962,34.2381
309,2012/10/7,21:19:00,03-27.4700S,117-23.9900E,84,28.96,34.2382
310,2012/10/7,21:20:00,03-27.4500S,117-24.2000E,84,28.959,34.2395
311,2012/10/7,21:21:00,03-27.4300S,117-24.3900E,84,28.96,34.2391
312,2012/10/7,21:22:00,03-27.4200S,117-24.5900E,84,28.962,34.2401
313,2012/10/7,21:23:00,03-27.3900S,117-24.8000E,84,28.962,34.239
314,2012/10/7,21:24:00,03-27.3800S,117-25.0000E,84,28.964,34.2396
315,2012/10/7,21:25:00,03-27.3600S,117-25.1900E,84,28.967,34.2403
316,2012/10/7,21:26:00,03-27.3300S,117-25.4000E,84,28.972,34.2413
317,2012/10/7,21:27:00,03-27.3100S,117-25.6000E,84,28.98,34.2427
318,2012/10/7,21:28:00,03-27.3000S,117-25.8000E,84,28.985,34.2433
319,2012/10/7,21:29:00,03-27.2800S,117-26.0000E,84,28.978,34.245
320,2012/10/7,21:30:00,03-27.2500S,117-26.2000E,84,28.973,34.2447
321,2012/10/7,21:31:00,03-27.2300S,117-26.4000E,84,28.975,34.245
322,2012/10/7,21:32:00,03-27.2100S,117-26.6000E,84,28.977,34.245
323,2012/10/7,21:33:00,03-27.1900S,117-26.8000E,84,28.984,34.2454
324,2012/10/7,21:34:00,03-27.1700S,117-27.0000E,83,28.989,34.2452
325,2012/10/7,21:35:00,03-27.1500S,117-27.2000E,84,28.991,34.2468
326,2012/10/7,21:36:00,03-27.1300S,117-27.4000E,84,28.995,34.2475
327,2012/10/7,21:37:00,03-27.1100S,117-27.6100E,84,29.001,34.2463
328,2012/10/7,21:38:00,03-27.0900S,117-27.8100E,84,28.999,34.2466
329,2012/10/7,21:39:00,03-27.0700S,117-28.0200E,84,28.995,34.2476
330,2012/10/7,21:40:00,03-27.0500S,117-28.2300E,84,28.993,34.2474
331,2012/10/7,21:41:00,03-27.0300S,117-28.4300E,84,28.985,34.2471
332,2012/10/7,21:42:00,03-27.0100S,117-28.6300E,84,28.977,34.248
333,2012/10/7,21:43:00,03-26.9900S,117-28.8300E,84,28.971,34.2469
334,2012/10/7,21:44:00,03-26.9700S,117-29.0300E,84,28.968,34.2485
335,2012/10/7,21:45:00,03-26.9500S,117-29.2300E,84,28.967,34.2483
336,2012/10/7,21:46:00,03-26.9300S,117-29.4300E,84,28.968,34.249
337,2012/10/7,21:47:00,03-26.9100S,117-29.6300E,84,28.97,34.2468
338,2012/10/7,21:48:00,03-26.8900S,117-29.8300E,84,28.963,34.249
339,2012/10/7,21:49:00,03-26.8700S,117-30.0400E,84,28.959,34.2488
340,2012/10/7,21:50:00,03-26.8500S,117-30.2400E,84,28.956,34.2481
341,2012/10/7,21:51:00,03-26.8300S,117-30.4400E,84,28.956,34.2496
342,2012/10/7,21:52:00,03-26.8100S,117-30.6400E,84,28.96,34.2495
343,2012/10/7,21:53:00,03-26.7800S,117-30.8400E,84,28.966,34.2511
344,2012/10/7,21:54:00,03-26.7600S,117-31.0400E,84,28.972,34.2508
345,2012/10/7,21:55:00,03-26.7400S,117-31.2500E,83,28.977,34.2514
346,2012/10/7,21:56:00,03-26.7200S,117-31.4400E,83,28.985,34.2522
347,2012/10/7,21:57:00,03-26.7000S,117-31.6500E,84,28.994,34.2516
348,2012/10/7,21:58:00,03-26.6800S,117-31.8500E,84,28.999,34.2533
349,2012/10/7,21:59:00,03-26.6600S,117-32.0500E,84,29.006,34.2538
350,2012/10/7,22:00:00,03-26.6400S,117-32.2700E,84,29.021,34.2549
351,2012/10/7,22:01:00,03-26.6200S,117-32.4700E,84,29.025,34.255
352,2012/10/7,22:02:00,03-26.6000S,117-32.6700E,84,29.029,34.2555
353,2012/10/7,22:03:00,03-26.5800S,117-32.8700E,84,29.026,34.2571
354,2012/10/7,22:04:00,03-26.5600S,117-33.0700E,84,29.024,34.2564
355,2012/10/7,22:05:00,03-26.5400S,117-33.2700E,84,29.022,34.2585
356,2012/10/7,22:06:00,03-26.5200S,117-33.4700E,84,29.023,34.2591
357,2012/10/7,22:07:00,03-26.5000S,117-33.6800E,84,29.033,34.2599
358,2012/10/7,22:08:00,03-26.4800S,117-33.8800E,84,29.043,34.2603
359,2012/10/7,22:09:00,03-26.4600S,117-34.0800E,84,29.049,34.2602
360,2012/10/7,22:10:00,03-26.4300S,117-34.2800E,83,29.055,34.2608
361,2012/10/7,22:11:00,03-26.4100S,117-34.4800E,84,29.058,34.2606
362,2012/10/7,22:12:00,03-26.3900S,117-34.6800E,84,29.059,34.2601
363,2012/10/7,22:13:00,03-26.3700S,117-34.8800E,84,29.042,34.259
364,2012/10/7,22:14:00,03-26.3500S,117-35.0800E,84,29.031,34.2588
365,2012/10/7,22:15:00,03-26.3300S,117-35.2800E,84,29.024,34.257
366,2012/10/7,22:16:00,03-26.3100S,117-35.4900E,83,29.028,34.2573
367,2012/10/7,22:17:00,03-26.2900S,117-35.6900E,84,29.036,34.2577
368,2012/10/7,22:18:00,03-26.2800S,117-35.8900E,87,29.045,34.2579
369,2012/10/7,22:19:00,03-26.2700S,117-36.0900E,89,29.047,34.2572
370,2012/10/7,22:20:00,03-26.2700S,117-36.3100E,88,29.045,34.2567
371,2012/10/7,22:21:00,03-26.2600S,117-36.5100E,87,29.041,34.2549
372,2012/10/7,22:22:00,03-26.2500S,117-36.7100E,87,29.037,34.2551
373,2012/10/7,22:23:00,03-26.2400S,117-36.9200E,87,29.031,34.2542
374,2012/10/7,22:24:00,03-26.2400S,117-37.1200E,87,29.016,34.2537
375,2012/10/7,22:25:00,03-26.2300S,117-37.3200E,87,29,34.2533
376,2012/10/7,22:26:00,03-26.2200S,117-37.5200E,87,28.98,34.2502
377,2012/10/7,22:27:00,03-26.2100S,117-37.7200E,87,28.974,34.2484
378,2012/10/7,22:28:00,03-26.2000S,117-37.9200E,87,28.968,34.2462
379,2012/10/7,22:29:00,03-26.1900S,117-38.1300E,87,28.948,34.2438
380,2012/10/7,22:30:00,03-26.1800S,117-38.3300E,87,28.957,34.2424
381,2012/10/7,22:31:00,03-26.1700S,117-38.5300E,87,28.979,34.2416
382,2012/10/7,22:32:00,03-26.1600S,117-38.7300E,87,28.984,34.2413
383,2012/10/7,22:33:00,03-26.1500S,117-38.9400E,87,28.97,34.2422
384,2012/10/7,22:34:00,03-26.1400S,117-39.1400E,87,28.966,34.2399
385,2012/10/7,22:35:00,03-26.1300S,117-39.3400E,88,28.971,34.2379
386,2012/10/7,22:36:00,03-26.1300S,117-39.5400E,88,28.977,34.2374
387,2012/10/7,22:37:00,03-26.1200S,117-39.7400E,87,28.974,34.2375
388,2012/10/7,22:38:00,03-26.1100S,117-39.9400E,87,28.981,34.2377
389,2012/10/7,22:39:00,03-26.1000S,117-40.1500E,87,28.984,34.2368
390,2012/10/7,22:40:00,03-26.1000S,117-40.3600E,87,28.974,34.234
391,2012/10/7,22:41:00,03-26.0900S,117-40.5600E,88,28.969,34.2323
392,2012/10/7,22:42:00,03-26.0800S,117-40.7700E,87,28.961,34.2299
393,2012/10/7,22:43:00,03-26.0700S,117-40.9700E,87,28.964,34.2295
394,2012/10/7,22:44:00,03-26.0600S,117-41.1700E,87,28.963,34.2284
395,2012/10/7,22:45:00,03-26.0600S,117-41.3700E,88,28.965,34.2269
396,2012/10/7,22:46:00,03-26.0500S,117-41.5700E,87,28.964,34.2262
397,2012/10/7,22:47:00,03-26.0400S,117-41.7800E,87,28.962,34.227
398,2012/10/7,22:48:00,03-26.0300S,117-41.9800E,87,28.957,34.2265
399,2012/10/7,22:49:00,03-26.0300S,117-42.1800E,87,28.957,34.2272
400,2012/10/7,22:50:00,03-26.0200S,117-42.3900E,87,28.96,34.2263
401,2012/10/7,22:51:00,03-26.0100S,117-42.5800E,87,28.958,34.2263
402,2012/10/7,22:52:00,03-26.0000S,117-42.7900E,87,28.978,34.2276
403,2012/10/7,22:53:00,03-25.9900S,117-42.9900E,87,28.978,34.2271
404,2012/10/7,22:54:00,03-25.9900S,117-43.2000E,87,28.994,34.2271
405,2012/10/7,22:55:00,03-25.9800S,117-43.4000E,88,28.995,34.2278
406,2012/10/7,22:56:00,03-25.9700S,117-43.6000E,88,28.983,34.2271
407,2012/10/7,22:57:00,03-25.9600S,117-43.8000E,88,28.964,34.2267
408,2012/10/7,22:58:00,03-25.9600S,117-44.0100E,87,28.973,34.225
409,2012/10/7,22:59:00,03-25.9500S,117-44.2100E,87,28.974,34.225
410,2012/10/7,23:00:00,03-25.9400S,117-44.4300E,87,28.975,34.2259
411,2012/10/7,23:01:00,03-25.9300S,117-44.6400E,87,28.979,34.2257
412,2012/10/7,23:02:00,03-25.9300S,117-44.8400E,88,28.981,34.2265
413,2012/10/7,23:03:00,03-25.9200S,117-45.0400E,87,28.982,34.2256
414,2012/10/7,23:04:00,03-25.9100S,117-45.2500E,87,28.981,34.226
415,2012/10/7,23:05:00,03-25.9000S,117-45.4500E,87,28.973,34.2257
416,2012/10/7,23:06:00,03-25.9000S,117-45.6600E,87,28.954,34.2242
417,2012/10/7,23:07:00,03-25.8900S,117-45.8600E,88,28.937,34.2216
418,2012/10/7,23:08:00,03-25.8800S,117-46.0700E,88,28.941,34.221
419,2012/10/7,23:09:00,03-25.8800S,117-46.2800E,88,28.973,34.221
420,2012/10/7,23:10:00,03-25.8700S,117-46.4800E,88,28.99,34.2235
421,2012/10/7,23:11:00,03-25.8700S,117-46.6900E,87,28.995,34.223
422,2012/10/7,23:12:00,03-25.8600S,117-46.8900E,87,28.997,34.2222
423,2012/10/7,23:13:00,03-25.8500S,117-47.1000E,87,28.999,34.2232
424,2012/10/7,23:14:00,03-25.8400S,117-47.3000E,88,28.995,34.2222
425,2012/10/7,23:15:00,03-25.8300S,117-47.5200E,88,28.974,34.2224
426,2012/10/7,23:16:00,03-25.8300S,117-47.7200E,88,28.958,34.2209
427,2012/10/7,23:17:00,03-25.8200S,117-47.9300E,87,28.969,34.2196
428,2012/10/7,23:18:00,03-25.8100S,117-48.1300E,87,28.966,34.2205
429,2012/10/7,23:19:00,03-25.8000S,117-48.3400E,87,28.973,34.2199
430,2012/10/7,23:20:00,03-25.8000S,117-48.5600E,87,28.97,34.2208
431,2012/10/7,23:21:00,03-25.7900S,117-48.7700E,87,28.97,34.2223
432,2012/10/7,23:22:00,03-25.7800S,117-48.9800E,87,28.983,34.2232
433,2012/10/7,23:23:00,03-25.7700S,117-49.1800E,87,28.985,34.2243
434,2012/10/7,23:24:00,03-25.7600S,117-49.3900E,87,28.978,34.2262
435,2012/10/7,23:25:00,03-25.7600S,117-49.6000E,88,28.935,34.2239
436,2012/10/7,23:26:00,03-25.7500S,117-49.8100E,88,28.91,34.2245
437,2012/10/7,23:27:00,03-25.7400S,117-50.0100E,88,28.912,34.22
438,2012/10/7,23:28:00,03-25.7400S,117-50.2200E,88,28.915,34.2189
439,2012/10/7,23:29:00,03-25.7300S,117-50.4300E,88,28.913,34.2192
440,2012/10/7,23:30:00,03-25.7300S,117-50.6300E,88,28.927,34.2184
441,2012/10/7,23:31:00,03-25.7200S,117-50.8400E,85,28.93,34.2184
442,2012/10/7,23:32:00,03-25.6900S,117-51.0400E,81,28.94,34.2206
443,2012/10/7,23:33:00,03-25.6500S,117-51.2500E,79,28.938,34.2195
444,2012/10/7,23:34:00,03-25.6100S,117-51.4500E,79,28.927,34.2193
445,2012/10/7,23:35:00,03-25.5800S,117-51.6600E,80,28.927,34.2183
446,2012/10/7,23:36:00,03-25.5400S,117-51.8600E,79,28.94,34.2176
447,2012/10/7,23:37:00,03-25.5000S,117-52.0700E,80,28.943,34.219
448,2012/10/7,23:38:00,03-25.4600S,117-52.2600E,75,28.942,34.2222
449,2012/10/7,23:39:00,03-25.3900S,117-52.4600E,69,28.945,34.2223
450,2012/10/7,23:40:00,03-25.3100S,117-52.6500E,68,28.947,34.2226
451,2012/10/7,23:41:00,03-25.2400S,117-52.8500E,69,28.931,34.2233
452,2012/10/7,23:42:00,03-25.1600S,117-53.0400E,69,28.963,34.2222
453,2012/10/7,23:43:00,03-25.0900S,117-53.2400E,69,28.997,34.2245
454,2012/10/7,23:44:00,03-25.0100S,117-53.4300E,69,29.034,34.2273
455,2012/10/7,23:45:00,03-24.9500S,117-53.6200E,69,29.032,34.231
456,2012/10/7,23:46:00,03-24.8700S,117-53.8100E,68,29.041,34.2315
457,2012/10/7,23:47:00,03-24.8000S,117-54.0000E,68,29.061,34.2311
458,2012/10/7,23:48:00,03-24.7300S,117-54.1900E,68,29.063,34.2337
459,2012/10/7,23:49:00,03-24.6500S,117-54.3900E,68,29.041,34.2365
460,2012/10/7,23:50:00,03-24.5700S,117-54.5700E,68,29.058,34.2364
461,2012/10/7,23:51:00,03-24.5000S,117-54.7600E,68,29.071,34.2356
462,2012/10/7,23:52:00,03-24.4200S,117-54.9500E,68,29.065,34.2358
463,2012/10/7,23:53:00,03-24.3500S,117-55.1400E,67,29.108,34.236
464,2012/10/7,23:54:00,03-24.2700S,117-55.3300E,67,29.121,34.2416
465,2012/10/7,23:55:00,03-24.2000S,117-55.5200E,68,29.127,34.2437
466,2012/10/7,23:56:00,03-24.1200S,117-55.7000E,68,29.13,34.2443
467,2012/10/7,23:57:00,03-24.0400S,117-55.9000E,68,29.129,34.2446
468,2012/10/7,23:58:00,03-23.9700S,117-56.0900E,67,29.159,34.2451
469,2012/10/7,23:59:00,03-23.8900S,117-56.2700E,67,29.163,34.2479
470,2012/10/8,0:00:00,03-23.8200S,117-56.4600E,67,29.167,34.2496
471,2012/10/8,0:01:00,03-23.7400S,117-56.6500E,68,29.174,34.2498
472,2012/10/8,0:02:00,03-23.6700S,117-56.8400E,68,29.164,34.2512
473,2012/10/8,0:03:00,03-23.5900S,117-57.0300E,68,29.159,34.2503
474,2012/10/8,0:04:00,03-23.5200S,117-57.2200E,68,29.14,34.248
475,2012/10/8,0:05:00,03-23.4400S,117-57.4100E,68,29.149,34.2474
476,2012/10/8,0:06:00,03-23.3700S,117-57.5900E,68,29.134,34.2461
477,2012/10/8,0:07:00,03-23.3000S,117-57.7800E,68,29.11,34.2452
478,2012/10/8,0:08:00,03-23.2200S,117-57.9700E,69,29.101,34.242
479,2012/10/8,0:09:00,03-23.1500S,117-58.1600E,68,29.119,34.2411
480,2012/10/8,0:10:00,03-23.0700S,117-58.3500E,67,29.115,34.2377
481,2012/10/8,0:11:00,03-23.0000S,117-58.5400E,67,29.084,34.2385
482,2012/10/8,0:12:00,03-22.9200S,117-58.7300E,68,29.049,34.2345
483,2012/10/8,0:13:00,03-22.8500S,117-58.9200E,68,29.03,34.2331
484,2012/10/8,0:14:00,03-22.7700S,117-59.1100E,68,29.028,34.2316
485,2012/10/8,0:15:00,03-22.7000S,117-59.3000E,68,29.05,34.2274
486,2012/10/8,0:16:00,03-22.6200S,117-59.4900E,68,29.07,34.2262
487,2012/10/8,0:17:00,03-22.5400S,117-59.6800E,68,29.06,34.227
488,2012/10/8,0:18:00,03-22.4700S,117-59.8700E,67,29.055,34.2212
489,2012/10/8,0:19:00,03-22.3900S,118-00.0600E,68,29.036,34.2233
490,2012/10/8,0:20:00,03-22.3200S,118-00.2500E,68,29.025,34.23
491,2012/10/8,0:21:00,03-22.2400S,118-00.4500E,68,29.054,34.2279
492,2012/10/8,0:22:00,03-22.1600S,118-00.6500E,68,29.064,34.2273
493,2012/10/8,0:23:00,03-22.0900S,118-00.8400E,68,29.046,34.2284
494,2012/10/8,0:24:00,03-22.0100S,118-01.0300E,68,29.067,34.2281
495,2012/10/8,0:25:00,03-21.9300S,118-01.2200E,69,29.058,34.2306
496,2012/10/8,0:26:00,03-21.8600S,118-01.4100E,69,29.039,34.2288
497,2012/10/8,0:27:00,03-21.7900S,118-01.6000E,69,29.032,34.2303
498,2012/10/8,0:28:00,03-21.7200S,118-01.8000E,69,29.022,34.2283
499,2012/10/8,0:29:00,03-21.6400S,118-01.9900E,69,29.015,34.2258
500,2012/10/8,0:30:00,03-21.5700S,118-02.1800E,69,29.002,34.2273
501,2012/10/8,0:31:00,03-21.5000S,118-02.3700E,68,29.008,34.2258
502,2012/10/8,0:32:00,03-21.4200S,118-02.5600E,68,29.013,34.2263
503,2012/10/8,0:33:00,03-21.3500S,118-02.7500E,68,29.025,34.2262
504,2012/10/8,0:34:00,03-21.2700S,118-02.9400E,67,29.021,34.2279
505,2012/10/8,0:35:00,03-21.2000S,118-03.1300E,67,29.018,34.2294
506,2012/10/8,0:36:00,03-21.1200S,118-03.3200E,68,29.014,34.2319
507,2012/10/8,0:37:00,03-21.0400S,118-03.5100E,68,29.011,34.2304
508,2012/10/8,0:38:00,03-20.9700S,118-03.7000E,68,29.005,34.2326
509,2012/10/8,0:39:00,03-20.8900S,118-03.9000E,69,28.996,34.2301
510,2012/10/8,0:40:00,03-20.8200S,118-04.0900E,69,28.952,34.2288
511,2012/10/8,0:41:00,03-20.7500S,118-04.3000E,70,28.934,34.2244
512,2012/10/8,0:42:00,03-20.6800S,118-04.4900E,69,28.926,34.2123
513,2012/10/8,0:43:00,03-20.6000S,118-04.6900E,68,28.918,34.2034
514,2012/10/8,0:44:00,03-20.5300S,118-04.8800E,68,28.921,34.1988
515,2012/10/8,0:45:00,03-20.4500S,118-05.0700E,68,28.923,34.1925
516,2012/10/8,0:46:00,03-20.3700S,118-05.2600E,68,28.939,34.1881
517,2012/10/8,0:47:00,03-20.3000S,118-05.4600E,68,29.001,34.184
518,2012/10/8,0:48:00,03-20.2200S,118-05.6400E,68,28.956,34.1855
519,2012/10/8,0:49:00,03-20.1400S,118-05.8500E,67,28.974,34.1853
520,2012/10/8,0:50:00,03-20.0600S,118-06.0400E,67,28.982,34.1807
521,2012/10/8,0:51:00,03-19.9800S,118-06.2300E,68,28.96,34.1783
522,2012/10/8,0:52:00,03-19.9100S,118-06.4300E,67,28.972,34.1743
523,2012/10/8,0:53:00,03-19.8200S,118-06.6200E,66,28.954,34.1724
524,2012/10/8,0:54:00,03-19.7400S,118-06.8100E,67,28.943,34.1734
525,2012/10/8,0:55:00,03-19.6600S,118-07.0000E,68,29.008,34.178
526,2012/10/8,0:56:00,03-19.5800S,118-07.2000E,68,28.989,34.1795
527,2012/10/8,0:57:00,03-19.5100S,118-07.3900E,68,29.033,34.1817
528,2012/10/8,0:58:00,03-19.4300S,118-07.5900E,68,29.004,34.1831
529,2012/10/8,0:59:00,03-19.3500S,118-07.7800E,68,28.971,34.1847
530,2012/10/8,1:00:00,03-19.2700S,118-07.9800E,68,28.967,34.1842
531,2012/10/8,1:01:00,03-19.1900S,118-08.1800E,67,28.966,34.19
532,2012/10/8,1:02:00,03-19.1100S,118-08.3700E,66,28.965,34.1941
533,2012/10/8,1:03:00,03-19.0200S,118-08.5700E,66,28.962,34.2131
534,2012/10/8,1:04:00,03-18.9300S,118-08.7600E,65,28.981,34.2433
535,2012/10/8,1:05:00,03-18.8500S,118-08.9500E,65,29.02,34.2532
536,2012/10/8,1:06:00,03-18.7600S,118-09.1400E,66,29.061,34.2501
537,2012/10/8,1:07:00,03-18.6800S,118-09.3300E,66,29.083,34.2478
538,2012/10/8,1:08:00,03-18.6000S,118-09.5300E,66,29.065,34.2426
539,2012/10/8,1:09:00,03-18.5100S,118-09.7100E,66,29.027,34.2356
540,2012/10/8,1:10:00,03-18.4300S,118-09.9100E,67,28.952,34.2476
541,2012/10/8,1:11:00,03-18.3500S,118-10.1000E,68,28.886,34.2635
542,2012/10/8,1:12:00,03-18.2800S,118-10.2900E,68,28.87,34.2722
543,2012/10/8,1:13:00,03-18.2000S,118-10.4800E,67,28.877,34.2754
544,2012/10/8,1:14:00,03-18.1200S,118-10.6600E,66,28.936,34.2742
545,2012/10/8,1:15:00,03-18.0400S,118-10.8500E,66,28.955,34.2745
546,2012/10/8,1:16:00,03-17.9600S,118-11.0400E,66,28.942,34.2652
547,2012/10/8,1:17:00,03-17.8800S,118-11.2200E,67,28.931,34.2485
548,2012/10/8,1:18:00,03-17.8000S,118-11.4100E,67,28.931,34.2415